START_TIME,STEP,MOV.,M6,t_acc.,M7,t_acc.,M19,t_acc.,H36,t_acc.
1979-07-07 15:00:27.710 ,1,0,0.,12.0,0.,12.0,0.,12.0,1.,12.0
1979-07-07 15:00:39.710 ,1,0,0.,12.0,0.,12.0,0.,12.0,0.,12.0
1979-07-07 15:00:51.710 ,2,1,0.,12.0,0.,12.0,0.,12.0,0.,12.0
1979-07-07 15:01:03.710 ,2,1,0.,12.0,0.,12.0,0.,12.0,0.,12.0
1979-07-07 15:01:15.710 ,2,0,0.,12.0,0.,12.0,0.,12.0,0.,12.0
1979-07-07 15:01:27.710 ,2,0,0.,12.0,0.,12.0,0.,12.0,0.,12.0
1979-07-07 15:01:39.710 ,3,1,0.,12.0,0.,12.0,0.,12.0,1.,12.0
1979-07-07 15:01:51.710 ,3,1,1.,12.0,0.,12.0,0.,12.0,0.,12.0
1979-07-07 15:02:03.710 ,3,0,0.,12.0,0.,12.0,0.,12.0,0.,12.0
1979-07-07 15:02:15.710 ,3,0,0.,12.0,0.,12.0,0.,12.0,0.,12.0
1979-07-07 15:02:27.710 ,4,1,0.,12.0,0.,12.0,0.,12.0,0.,12.0
1979-07-07 15:02:39.710 ,4,1,0.,12.0,0.,12.0,0.,12.0,1.,12.0
1979-07-07 15:02:51.710 ,4,0,2.,12.0,0.,12.0,0.,12.0,1.,12.0
1979-07-07 15:03:03.710 ,4,0,0.,12.0,0.,12.0,0.,12.0,0.,12.0
1979-07-07 15:03:15.710 ,5,1,0.,12.0,0.,12.0,0.,12.0,0.,12.0
1979-07-07 15:03:27.710 ,5,1,0.,12.0,0.,12.0,0.,12.0,0.,12.0
1979-07-07 15:03:39.710 ,5,0,0.,12.0,0.,12.0,0.,12.0,0.,12.0
1979-07-07 15:03:51.710 ,5,0,1.,12.0,0.,12.0,0.,12.0,0.,12.0
1979-07-07 15:04:03.710 ,6,1,0.,12.0,0.,12.0,0.,12.0,1.,12.0
1979-07-07 15:04:15.710 ,6,1,2.,12.0,0.,12.0,0.,12.0,0.,12.0
1979-07-07 15:04:27.710 ,6,0,0.,12.0,0.,12.0,0.,12.0,1.,12.0
1979-07-07 15:04:39.710 ,6,0,1.,12.0,0.,12.0,0.,12.0,0.,12.0
1979-07-07 15:04:51.710 ,7,1,0.,12.0,0.,12.0,0.,12.0,1.,12.0
1979-07-07 15:05:03.710 ,7,1,0.,12.0,0.,12.0,0.,12.0,0.,12.0
1979-07-07 15:05:15.710 ,7,0,0.,12.0,0.,12.0,0.,12.0,0.,12.0
1979-07-07 15:05:27.710 ,7,0,0.,12.0,0.,12.0,0.,12.0,0.,12.0
1979-07-07 15:05:39.710 ,7,1,0.,12.0,0.,12.0,0.,12.0,0.,12.0
1979-07-07 15:05:51.710 ,7,1,0.,12.0,0.,12.0,0.,12.0,0.,12.0
1979-07-07 15:06:03.710 ,7,0,0.,12.0,0.,12.0,0.,12.0,0.,12.0
1979-07-07 15:06:15.710 ,7,0,0.,12.0,0.,12.0,0.,12.0,0.,12.0
1979-07-07 15:06:27.710 ,6,1,0.,12.0,0.,12.0,0.,12.0,0.,12.0
1979-07-07 15:06:39.710 ,6,1,0.,12.0,0.,12.0,0.,12.0,0.,12.0
1979-07-07 15:06:51.710 ,6,0,1.,12.0,0.,12.0,0.,12.0,1.,12.0
1979-07-07 15:07:03.710 ,6,0,1.,12.0,0.,12.0,0.,12.0,0.,12.0
1979-07-07 15:07:15.710 ,5,1,0.,12.0,0.,12.0,0.,12.0,0.,12.0
1979-07-07 15:07:27.710 ,5,1,2.,12.0,0.,12.0,0.,12.0,0.,12.0
1979-07-07 15:07:39.710 ,5,0,0.,12.0,0.,12.0,0.,12.0,0.,12.0
1979-07-07 15:07:51.710 ,5,0,0.,12.0,0.,12.0,0.,12.0,0.,12.0
1979-07-07 15:08:03.710 ,4,1,0.,12.0,0.,12.0,0.,12.0,1.,12.0
1979-07-07 15:08:15.710 ,4,1,0.,12.0,0.,12.0,0.,12.0,1.,12.0
1979-07-07 15:08:27.710 ,4,0,2.,12.0,0.,12.0,0.,12.0,1.,12.0
1979-07-07 15:08:39.710 ,4,0,0.,12.0,0.,12.0,0.,12.0,0.,12.0
1979-07-07 15:08:51.700 ,3,1,0.,12.0,0.,12.0,0.,12.0,0.,12.0
1979-07-07 15:09:03.710 ,3,1,0.,12.0,0.,12.0,0.,12.0,0.,12.0
1979-07-07 15:09:15.700 ,3,0,0.,12.0,0.,12.0,0.,12.0,0.,12.0
1979-07-07 15:09:27.710 ,3,0,1.,12.0,0.,12.0,0.,12.0,0.,12.0
1979-07-07 15:09:39.700 ,2,1,0.,12.0,0.,12.0,0.,12.0,0.,12.0
1979-07-07 15:09:51.710 ,2,1,3.,12.0,0.,12.0,0.,12.0,0.,12.0
1979-07-07 15:10:03.700 ,2,0,0.,12.0,0.,12.0,0.,12.0,0.,12.0
1979-07-07 15:10:15.710 ,2,0,0.,12.0,0.,12.0,0.,12.0,0.,12.0
1979-07-07 15:10:27.700 ,1,1,0.,12.0,0.,12.0,0.,12.0,0.,12.0
1979-07-07 15:10:39.710 ,1,1,0.,12.0,0.,12.0,0.,12.0,0.,12.0
1979-07-07 15:10:51.700 ,1,0,0.,12.0,0.,12.0,0.,12.0,0.,12.0
1979-07-07 15:11:03.710 ,1,0,0.,12.0,0.,12.0,0.,12.0,0.,12.0
1979-07-07 15:11:15.700 ,0,1,0.,12.0,0.,12.0,0.,12.0,0.,12.0
1979-07-07 15:11:27.710 ,0,1,0.,12.0,0.,12.0,0.,12.0,0.,12.0
1979-07-07 15:11:39.700 ,0,0,1.,12.0,0.,12.0,0.,12.0,0.,12.0
1979-07-07 15:11:51.710 ,0,0,0.,12.0,0.,12.0,0.,12.0,0.,12.0
1979-07-07 15:12:03.700 ,0,1,0.,12.0,0.,12.0,0.,12.0,0.,12.0
1979-07-07 15:12:15.710 ,0,1,0.,12.0,0.,12.0,0.,12.0,0.,12.0
1979-07-07 15:12:27.700 ,0,0,0.,12.0,0.,12.0,0.,12.0,0.,12.0
1979-07-07 15:12:39.710 ,0,0,0.,12.0,0.,12.0,0.,12.0,0.,12.0
1979-07-07 15:12:51.700 ,1,1,0.,12.0,0.,12.0,0.,12.0,0.,12.0
1979-07-07 15:13:03.710 ,1,1,0.,12.0,0.,12.0,0.,12.0,1.,12.0
1979-07-07 15:13:15.700 ,1,0,1.,12.0,0.,12.0,0.,12.0,0.,12.0
1979-07-07 15:13:27.710 ,1,0,0.,12.0,0.,12.0,0.,12.0,1.,12.0
1979-07-07 15:14:27.700 ,0,0,0.,12.0,0.,12.0,0.,12.0,0.,12.0
1979-07-07 15:14:39.710 ,0,0,0.,12.0,0.,12.0,0.,12.0,0.,12.0
1979-07-07 15:14:51.700 ,0,0,1.,12.0,0.,12.0,0.,12.0,0.,12.0
1979-07-07 15:15:03.710 ,0,0,0.,12.0,0.,12.0,0.,12.0,0.,12.0
1979-07-07 15:14:51.700 ,0,0,1.,12.0,0.,12.0,0.,12.0,0.,12.0
1979-07-07 15:15:03.710 ,0,0,0.,12.0,0.,12.0,0.,12.0,0.,12.0
1979-07-07 15:15:15.700 ,4,1,3.,12.0,0.,12.0,0.,12.0,0.,12.0
1979-07-07 15:15:27.700 ,4,1,1.,12.0,0.,12.0,0.,12.0,0.,12.0
1979-07-07 15:15:39.700 ,4,0,0.,12.0,0.,12.0,0.,12.0,0.,12.0
1979-07-07 15:15:51.700 ,4,0,0.,12.0,0.,12.0,0.,12.0,0.,12.0
1979-07-07 15:16:03.700 ,5,1,1.,12.0,0.,12.0,0.,12.0,0.,12.0
1979-07-07 15:16:15.700 ,5,1,4.,12.0,0.,12.0,0.,12.0,0.,12.0
1979-07-07 15:16:27.700 ,5,0,0.,12.0,0.,12.0,0.,12.0,0.,12.0
1979-07-07 15:16:39.700 ,5,0,2.,12.0,0.,12.0,0.,12.0,1.,12.0
1979-07-07 15:16:51.700 ,6,1,2.,12.0,0.,12.0,0.,12.0,2.,12.0
1979-07-07 15:17:03.700 ,6,1,3.,12.0,0.,12.0,0.,12.0,0.,12.0
1979-07-07 15:17:15.700 ,6,0,0.,12.0,0.,12.0,0.,12.0,0.,12.0
1979-07-07 15:17:27.700 ,6,0,0.,12.0,0.,12.0,0.,12.0,1.,12.0
1979-07-07 15:17:39.700 ,7,1,3.,12.0,0.,12.0,0.,12.0,0.,12.0
1979-07-07 15:17:51.700 ,7,1,0.,12.0,0.,12.0,0.,12.0,0.,12.0
1979-07-07 15:18:03.700 ,7,0,0.,12.0,0.,12.0,0.,12.0,0.,12.0
1979-07-07 15:18:15.700 ,7,0,0.,12.0,0.,12.0,0.,12.0,0.,12.0
1979-07-07 15:18:27.700 ,7,1,0.,12.0,0.,12.0,0.,12.0,0.,12.0
1979-07-07 15:18:39.700 ,7,1,0.,12.0,0.,12.0,0.,12.0,0.,12.0
1979-07-07 15:18:51.700 ,7,0,0.,12.0,0.,12.0,0.,12.0,0.,12.0
1979-07-07 15:19:03.700 ,7,0,0.,12.0,0.,12.0,0.,12.0,0.,12.0
1979-07-07 15:19:15.700 ,6,1,0.,12.0,0.,12.0,0.,12.0,0.,12.0
1979-07-07 15:19:27.700 ,6,1,4.,12.0,0.,12.0,0.,12.0,0.,12.0
1979-07-07 15:19:39.700 ,6,0,0.,12.0,0.,12.0,0.,12.0,0.,12.0
1979-07-07 15:19:51.700 ,6,0,2.,12.0,0.,12.0,0.,12.0,0.,12.0
1979-07-07 15:20:03.700 ,5,1,0.,12.0,0.,12.0,0.,12.0,1.,12.0
1979-07-07 15:20:15.700 ,5,1,0.,12.0,0.,12.0,0.,12.0,0.,12.0
1979-07-07 15:20:27.700 ,5,0,3.,12.0,0.,12.0,0.,12.0,0.,12.0
1979-07-07 15:20:39.700 ,5,0,4.,12.0,0.,12.0,0.,12.0,0.,12.0
1979-07-07 15:20:51.700 ,4,1,1.,12.0,0.,12.0,0.,12.0,1.,12.0
1979-07-07 15:21:03.700 ,4,1,1.,12.0,0.,12.0,0.,12.0,0.,12.0
1979-07-07 15:21:15.700 ,4,0,0.,12.0,0.,12.0,0.,12.0,1.,12.0
1979-07-07 15:21:27.700 ,4,0,2.,12.0,0.,12.0,0.,12.0,0.,12.0
1979-07-07 15:21:39.700 ,3,1,1.,12.0,0.,12.0,0.,12.0,0.,12.0
1979-07-07 15:21:51.700 ,3,1,1.,12.0,0.,12.0,0.,12.0,0.,12.0
1979-07-07 15:22:03.700 ,3,0,0.,12.0,0.,12.0,0.,12.0,1.,12.0
1979-07-07 15:22:15.700 ,3,0,2.,12.0,0.,12.0,0.,12.0,0.,12.0
1979-07-07 15:22:27.700 ,2,1,0.,12.0,0.,12.0,0.,12.0,1.,12.0
1979-07-07 15:22:39.700 ,2,1,0.,12.0,0.,12.0,0.,12.0,0.,12.0
1979-07-07 15:22:51.700 ,2,0,0.,12.0,0.,12.0,0.,12.0,1.,12.0
1979-07-07 15:23:03.700 ,2,0,0.,12.0,0.,12.0,0.,12.0,0.,12.0
1979-07-07 15:23:15.700 ,1,1,0.,12.0,0.,12.0,0.,12.0,0.,12.0
1979-07-07 15:23:27.700 ,1,1,0.,12.0,0.,12.0,0.,12.0,0.,12.0
1979-07-07 15:23:39.700 ,1,0,1.,12.0,0.,12.0,0.,12.0,1.,12.0
1979-07-07 15:23:51.700 ,1,0,1.,12.0,0.,12.0,0.,12.0,0.,12.0
1979-07-07 15:24:03.700 ,0,1,0.,12.0,0.,12.0,0.,12.0,0.,12.0
1979-07-07 15:24:15.700 ,0,1,1.,12.0,0.,12.0,0.,12.0,0.,12.0
1979-07-07 15:24:27.700 ,0,0,2.,12.0,0.,12.0,0.,12.0,0.,12.0
1979-07-07 15:24:39.700 ,0,0,1.,12.0,0.,12.0,0.,12.0,0.,12.0
1979-07-07 15:24:51.700 ,0,1,1.,12.0,0.,12.0,0.,12.0,1.,12.0
1979-07-07 15:25:03.700 ,0,1,0.,12.0,0.,12.0,0.,12.0,1.,12.0
1979-07-07 15:25:15.700 ,0,0,1.,12.0,0.,12.0,0.,12.0,0.,12.0
1979-07-07 15:25:27.700 ,0,0,0.,12.0,0.,12.0,0.,12.0,0.,12.0
1979-07-07 15:25:39.700 ,1,1,0.,12.0,0.,12.0,0.,12.0,0.,12.0
1979-07-07 15:25:51.700 ,1,1,0.,12.0,0.,12.0,0.,12.0,0.,12.0
1979-07-07 15:26:03.700 ,1,0,3.,12.0,0.,12.0,0.,12.0,0.,12.0
1979-07-07 15:26:15.700 ,1,0,0.,12.0,0.,12.0,0.,12.0,0.,12.0
1979-07-07 15:26:27.700 ,2,1,0.,12.0,0.,12.0,0.,12.0,0.,12.0
1979-07-07 15:26:39.700 ,2,1,1.,12.0,0.,12.0,0.,12.0,0.,12.0
1979-07-07 15:26:51.700 ,2,0,1.,12.0,0.,12.0,0.,12.0,0.,12.0
1979-07-07 15:27:03.700 ,2,0,3.,12.0,0.,12.0,0.,12.0,1.,12.0
1979-07-07 15:27:15.700 ,3,1,0.,12.0,0.,12.0,0.,12.0,0.,12.0
1979-07-07 15:27:27.700 ,3,1,2.,12.0,0.,12.0,0.,12.0,0.,12.0
1979-07-07 15:27:39.700 ,3,0,0.,12.0,0.,12.0,0.,12.0,1.,12.0
1979-07-07 15:27:51.700 ,3,0,0.,12.0,0.,12.0,0.,12.0,1.,12.0
1979-07-07 15:28:03.700 ,4,1,2.,12.0,0.,12.0,0.,12.0,0.,12.0
1979-07-07 15:28:15.700 ,4,1,2.,12.0,0.,12.0,0.,12.0,0.,12.0
1979-07-07 15:28:27.700 ,4,0,3.,12.0,0.,12.0,0.,12.0,0.,12.0
1979-07-07 15:28:39.700 ,4,0,2.,12.0,0.,12.0,0.,12.0,0.,12.0
1979-07-07 15:28:51.700 ,5,1,1.,12.0,0.,12.0,0.,12.0,1.,12.0
1979-07-07 15:29:03.700 ,5,1,2.,12.0,0.,12.0,0.,12.0,1.,12.0
1979-07-07 15:29:15.700 ,5,0,1.,12.0,0.,12.0,0.,12.0,0.,12.0
1979-07-07 15:29:27.700 ,5,0,5.,12.0,0.,12.0,0.,12.0,1.,12.0
1979-07-07 15:29:39.700 ,6,1,1.,12.0,0.,12.0,0.,12.0,0.,12.0
1979-07-07 15:29:51.700 ,6,1,0.,12.0,0.,12.0,0.,12.0,0.,12.0
1979-07-07 15:30:03.700 ,6,0,0.,12.0,0.,12.0,0.,12.0,0.,12.0
1979-07-07 15:30:15.700 ,6,0,2.,12.0,0.,12.0,0.,12.0,1.,12.0
1979-07-07 15:30:27.700 ,7,0,1.,12.0,0.,12.0,0.,12.0,0.,12.0
1979-07-07 15:30:39.700 ,7,0,0.,12.0,0.,12.0,0.,12.0,0.,12.0
1979-07-07 15:30:51.700 ,7,0,0.,12.0,0.,12.0,0.,12.0,0.,12.0
1979-07-07 15:31:03.700 ,7,0,0.,12.0,0.,12.0,0.,12.0,0.,12.0
1979-07-07 15:31:15.700 ,4,1,0.,12.0,0.,12.0,0.,12.0,0.,12.0
1979-07-07 15:31:27.700 ,4,1,1.,12.0,0.,12.0,0.,12.0,0.,12.0
1979-07-07 15:31:39.700 ,0,1,0.,12.0,0.,12.0,0.,12.0,0.,12.0
1979-07-07 15:31:51.700 ,0,1,1.,12.0,0.,12.0,0.,12.0,0.,12.0
1979-07-07 15:32:03.700 ,3,1,2.,12.0,0.,12.0,0.,12.0,0.,12.0
1979-07-07 15:32:15.700 ,3,1,1.,12.0,0.,12.0,0.,12.0,0.,12.0
1979-07-07 15:32:27.700 ,7,1,4.,12.0,0.,12.0,0.,12.0,0.,12.0
1979-07-07 15:32:39.700 ,7,1,2.,12.0,0.,12.0,0.,12.0,0.,12.0
1979-07-07 15:32:51.700 ,4,1,0.,12.0,0.,12.0,0.,12.0,0.,12.0
1979-07-07 15:33:03.700 ,4,1,1.,12.0,0.,12.0,0.,12.0,0.,12.0
1979-07-07 15:33:15.700 ,0,0,0.,12.0,0.,12.0,0.,12.0,0.,12.0
1979-07-07 15:33:27.700 ,0,0,0.,12.0,0.,12.0,0.,12.0,1.,12.0
1979-07-07 15:33:41.500 ,3,1,2.,12.0,0.,12.0,0.,12.0,0.,12.0
1979-07-07 15:33:53.500 ,3,1,1.,12.0,0.,12.0,0.,12.0,0.,12.0
1979-07-07 15:34:03.700 ,7,1,2.,12.0,0.,12.0,0.,12.0,1.,12.0
1979-07-07 15:34:15.700 ,7,1,0.,12.0,0.,12.0,0.,12.0,1.,12.0
1979-07-07 15:34:27.700 ,4,1,0.,12.0,0.,12.0,0.,12.0,0.,12.0
1979-07-07 15:34:39.700 ,4,1,4.,12.0,0.,12.0,0.,12.0,1.,12.0
1979-07-07 15:34:51.700 ,0,1,1.,12.0,0.,12.0,0.,12.0,1.,12.0
1979-07-07 15:35:03.700 ,0,1,0.,12.0,0.,12.0,0.,12.0,0.,12.0
1979-07-07 15:35:15.700 ,0,0,3.,12.0,0.,12.0,0.,12.0,0.,12.0
1979-07-07 15:35:27.700 ,0,0,2.,12.0,0.,12.0,0.,12.0,0.,12.0
1979-07-07 15:35:39.700 ,7,1,0.,12.0,0.,12.0,0.,12.0,1.,12.0
1979-07-07 15:35:51.700 ,7,1,3.,12.0,0.,12.0,0.,12.0,0.,12.0
1979-07-07 15:36:03.700 ,4,1,1.,12.0,0.,12.0,0.,12.0,0.,12.0
1979-07-07 15:36:15.700 ,4,1,1.,12.0,0.,12.0,0.,12.0,0.,12.0
1979-07-07 15:36:27.700 ,0,1,0.,12.0,0.,12.0,0.,12.0,0.,12.0
1979-07-07 15:36:39.700 ,0,1,0.,12.0,0.,12.0,0.,12.0,0.,12.0
1979-07-07 15:36:51.700 ,3,1,1.,12.0,0.,12.0,0.,12.0,0.,12.0
1979-07-07 15:37:03.700 ,3,1,2.,12.0,0.,12.0,0.,12.0,0.,12.0
1979-07-07 15:37:15.700 ,7,1,1.,12.0,0.,12.0,0.,12.0,1.,12.0
1979-07-07 15:37:27.700 ,7,1,2.,12.0,0.,12.0,0.,12.0,0.,12.0
1979-07-07 15:37:39.700 ,4,1,2.,12.0,0.,12.0,0.,12.0,0.,12.0
1979-07-07 15:37:51.700 ,4,1,3.,12.0,0.,12.0,0.,12.0,2.,12.0
1979-07-07 15:38:03.700 ,0,1,0.,12.0,0.,12.0,0.,12.0,0.,12.0
1979-07-07 15:38:15.700 ,0,1,0.,12.0,0.,12.0,0.,12.0,0.,12.0
1979-07-07 15:38:27.700 ,3,1,1.,12.0,0.,12.0,0.,12.0,0.,12.0
1979-07-07 15:38:39.700 ,3,1,0.,12.0,0.,12.0,0.,12.0,0.,12.0
1979-07-07 15:38:51.700 ,7,1,1.,12.0,0.,12.0,0.,12.0,1.,12.0
1979-07-07 15:39:03.700 ,7,1,3.,12.0,0.,12.0,0.,12.0,0.,12.0
1979-07-07 15:39:15.700 ,4,1,1.,12.0,0.,12.0,0.,12.0,1.,12.0
1979-07-07 15:39:27.700 ,4,1,1.,12.0,0.,12.0,0.,12.0,2.,12.0
1979-07-07 15:39:39.700 ,0,1,0.,12.0,0.,12.0,0.,12.0,0.,12.0
1979-07-07 15:39:51.700 ,0,1,1.,12.0,0.,12.0,0.,12.0,0.,12.0
1979-07-07 15:40:03.700 ,3,1,2.,12.0,0.,12.0,0.,12.0,0.,12.0
1979-07-07 15:40:15.700 ,3,1,0.,12.0,0.,12.0,0.,12.0,0.,12.0
1979-07-07 15:40:27.700 ,7,1,4.,12.0,0.,12.0,0.,12.0,1.,12.0
1979-07-07 15:40:39.700 ,7,1,1.,12.0,0.,12.0,0.,12.0,0.,12.0
1979-07-07 15:40:51.700 ,4,1,1.,12.0,0.,12.0,0.,12.0,0.,12.0
1979-07-07 15:41:03.700 ,4,1,3.,12.0,0.,12.0,0.,12.0,0.,12.0
1979-07-07 15:41:15.700 ,0,1,1.,12.0,0.,12.0,0.,12.0,0.,12.0
1979-07-07 15:41:27.700 ,0,1,1.,12.0,0.,12.0,0.,12.0,0.,12.0
1979-07-07 15:41:39.700 ,0,0,2.,12.0,0.,12.0,0.,12.0,0.,12.0
1979-07-07 15:41:51.700 ,0,0,2.,12.0,0.,12.0,0.,12.0,1.,12.0
1979-07-07 15:42:03.700 ,0,0,0.,12.0,0.,12.0,0.,12.0,1.,12.0
1979-07-07 15:42:15.700 ,0,0,1.,12.0,0.,12.0,0.,12.0,1.,12.0
1979-07-07 15:42:27.700 ,5,1,1.,12.0,0.,12.0,0.,12.0,0.,12.0
1979-07-07 15:42:39.700 ,5,1,0.,12.0,0.,12.0,0.,12.0,2.,12.0
1979-07-07 15:42:51.700 ,5,0,3.,12.0,0.,12.0,0.,12.0,1.,12.0
1979-07-07 15:43:03.700 ,5,0,4.,12.0,0.,12.0,0.,12.0,0.,12.0
1979-07-07 15:43:15.700 ,4,1,6.,12.0,0.,12.0,0.,12.0,1.,12.0
1979-07-07 15:43:27.700 ,4,1,2.,12.0,0.,12.0,0.,12.0,1.,12.0
1979-07-07 15:43:39.700 ,4,0,3.,12.0,0.,12.0,0.,12.0,1.,12.0
1979-07-07 15:43:51.700 ,4,0,0.,12.0,0.,12.0,0.,12.0,0.,12.0
1979-07-07 15:44:03.700 ,3,1,4.,12.0,0.,12.0,0.,12.0,0.,12.0
1979-07-07 15:44:15.700 ,3,1,1.,12.0,0.,12.0,0.,12.0,0.,12.0
1979-07-07 15:44:27.700 ,3,0,4.,12.0,0.,12.0,0.,12.0,1.,12.0
1979-07-07 15:44:39.700 ,3,0,0.,12.0,0.,12.0,0.,12.0,1.,12.0
1979-07-07 15:44:51.700 ,2,1,1.,12.0,0.,12.0,0.,12.0,0.,12.0
1979-07-07 15:45:03.700 ,2,1,0.,12.0,0.,12.0,0.,12.0,0.,12.0
1979-07-07 15:45:15.700 ,2,0,1.,12.0,0.,12.0,0.,12.0,0.,12.0
1979-07-07 15:45:27.700 ,2,0,1.,12.0,0.,12.0,0.,12.0,0.,12.0
1979-07-07 15:45:39.700 ,1,1,0.,12.0,0.,12.0,0.,12.0,0.,12.0
1979-07-07 15:45:51.700 ,1,1,0.,12.0,0.,12.0,0.,12.0,0.,12.0
1979-07-07 15:46:03.700 ,1,0,2.,12.0,0.,12.0,0.,12.0,0.,12.0
1979-07-07 15:46:15.700 ,1,0,2.,12.0,0.,12.0,0.,12.0,0.,12.0
1979-07-07 15:46:27.700 ,0,1,0.,12.0,0.,12.0,0.,12.0,0.,12.0
1979-07-07 15:46:39.700 ,0,1,0.,12.0,0.,12.0,0.,12.0,0.,12.0
1979-07-07 15:46:51.700 ,0,0,0.,12.0,0.,12.0,0.,12.0,1.,12.0
1979-07-07 15:47:03.700 ,0,0,1.,12.0,0.,12.0,0.,12.0,0.,12.0
1979-07-07 15:47:15.700 ,0,1,0.,12.0,0.,12.0,0.,12.0,0.,12.0
1979-07-07 15:47:27.700 ,0,1,1.,12.0,0.,12.0,0.,12.0,0.,12.0
1979-07-07 15:47:39.700 ,0,0,2.,12.0,0.,12.0,0.,12.0,0.,12.0
1979-07-07 15:47:51.700 ,0,0,1.,12.0,0.,12.0,0.,12.0,0.,12.0
1979-07-07 15:48:03.700 ,1,1,0.,12.0,0.,12.0,0.,12.0,0.,12.0
1979-07-07 15:48:15.700 ,1,1,0.,12.0,0.,12.0,0.,12.0,0.,12.0
1979-07-07 15:48:27.700 ,1,0,1.,12.0,0.,12.0,0.,12.0,0.,12.0
1979-07-07 15:48:39.700 ,1,0,1.,12.0,0.,12.0,0.,12.0,0.,12.0
1979-07-07 15:48:51.700 ,2,1,0.,12.0,0.,12.0,0.,12.0,0.,12.0
1979-07-07 15:49:03.700 ,2,1,1.,12.0,0.,12.0,0.,12.0,0.,12.0
1979-07-07 15:49:15.700 ,2,0,0.,12.0,0.,12.0,0.,12.0,0.,12.0
1979-07-07 15:49:27.700 ,2,0,2.,12.0,0.,12.0,0.,12.0,0.,12.0
1979-07-07 15:49:39.700 ,3,1,2.,12.0,0.,12.0,0.,12.0,0.,12.0
1979-07-07 15:49:51.700 ,3,1,1.,12.0,0.,12.0,0.,12.0,0.,12.0
1979-07-07 15:50:03.700 ,3,0,1.,12.0,0.,12.0,0.,12.0,0.,12.0
1979-07-07 15:50:15.700 ,3,0,1.,12.0,0.,12.0,0.,12.0,0.,12.0
1979-07-07 15:50:27.700 ,4,1,4.,12.0,0.,12.0,0.,12.0,0.,12.0
1979-07-07 15:50:39.700 ,4,1,4.,12.0,0.,12.0,0.,12.0,1.,12.0
1979-07-07 15:50:51.700 ,4,0,3.,12.0,0.,12.0,0.,12.0,0.,12.0
1979-07-07 15:51:03.700 ,4,0,4.,12.0,0.,12.0,0.,12.0,1.,12.0
1979-07-07 15:51:15.700 ,5,1,1.,12.0,0.,12.0,0.,12.0,2.,12.0
1979-07-07 15:51:27.700 ,5,1,2.,12.0,0.,12.0,0.,12.0,1.,12.0
1979-07-07 15:51:39.700 ,5,0,6.,12.0,0.,12.0,0.,12.0,0.,12.0
1979-07-07 15:51:51.700 ,5,0,4.,12.0,0.,12.0,0.,12.0,1.,12.0
1979-07-07 15:52:03.700 ,6,1,2.,12.0,0.,12.0,0.,12.0,1.,12.0
1979-07-07 15:52:15.700 ,6,1,2.,12.0,0.,12.0,0.,12.0,1.,12.0
1979-07-07 15:52:27.700 ,6,0,0.,12.0,0.,12.0,0.,12.0,1.,12.0
1979-07-07 15:52:39.700 ,6,0,1.,12.0,0.,12.0,0.,12.0,0.,12.0
1979-07-07 15:52:51.700 ,7,1,0.,12.0,0.,12.0,0.,12.0,0.,12.0
1979-07-07 15:53:03.700 ,7,1,0.,12.0,0.,12.0,0.,12.0,1.,12.0
1979-07-07 15:53:15.700 ,7,0,0.,12.0,0.,12.0,0.,12.0,0.,12.0
1979-07-07 15:53:27.700 ,7,0,0.,12.0,0.,12.0,0.,12.0,0.,12.0
1979-07-07 15:53:39.700 ,7,1,0.,12.0,0.,12.0,0.,12.0,0.,12.0
1979-07-07 15:53:51.700 ,7,1,0.,12.0,0.,12.0,0.,12.0,0.,12.0
1979-07-07 15:54:03.700 ,7,0,0.,12.0,0.,12.0,0.,12.0,0.,12.0
1979-07-07 15:54:15.700 ,7,0,0.,12.0,0.,12.0,0.,12.0,0.,12.0
1979-07-07 15:54:27.700 ,6,1,0.,12.0,0.,12.0,0.,12.0,0.,12.0
1979-07-07 15:54:39.700 ,6,1,0.,12.0,0.,12.0,0.,12.0,1.,12.0
1979-07-07 15:54:51.700 ,6,0,2.,12.0,0.,12.0,0.,12.0,2.,12.0
1979-07-07 15:55:03.700 ,6,0,1.,12.0,0.,12.0,0.,12.0,1.,12.0
1979-07-07 15:55:15.700 ,5,1,1.,12.0,0.,12.0,0.,12.0,0.,12.0
1979-07-07 15:55:27.700 ,5,1,2.,12.0,0.,12.0,0.,12.0,1.,12.0
1979-07-07 15:55:39.700 ,5,0,1.,12.0,0.,12.0,0.,12.0,0.,12.0
1979-07-07 15:55:51.700 ,5,0,4.,12.0,0.,12.0,0.,12.0,1.,12.0
1979-07-07 15:56:03.700 ,4,1,2.,12.0,0.,12.0,0.,12.0,1.,12.0
1979-07-07 15:56:15.700 ,4,1,2.,12.0,0.,12.0,0.,12.0,1.,12.0
1979-07-07 15:56:27.700 ,4,0,4.,12.0,0.,12.0,0.,12.0,2.,12.0
1979-07-07 15:56:39.700 ,4,0,6.,12.0,0.,12.0,0.,12.0,0.,12.0
1979-07-07 15:56:51.700 ,3,1,1.,12.0,0.,12.0,0.,12.0,0.,12.0
1979-07-07 15:57:03.700 ,3,1,0.,12.0,0.,12.0,0.,12.0,0.,12.0
1979-07-07 15:57:15.700 ,3,0,1.,12.0,0.,12.0,0.,12.0,0.,12.0
1979-07-07 15:57:27.700 ,3,0,2.,12.0,0.,12.0,0.,12.0,0.,12.0
1979-07-07 15:57:39.700 ,2,1,2.,12.0,0.,12.0,0.,12.0,0.,12.0
1979-07-07 15:57:51.700 ,2,1,1.,12.0,0.,12.0,0.,12.0,0.,12.0
1979-07-07 15:58:03.700 ,2,0,1.,12.0,0.,12.0,0.,12.0,0.,12.0
1979-07-07 15:58:15.700 ,2,0,1.,12.0,0.,12.0,0.,12.0,0.,12.0
1979-07-07 15:58:27.700 ,1,1,1.,12.0,0.,12.0,0.,12.0,0.,12.0
1979-07-07 15:58:39.700 ,1,1,0.,12.0,0.,12.0,0.,12.0,1.,12.0
1979-07-07 15:58:51.700 ,1,0,2.,12.0,0.,12.0,0.,12.0,0.,12.0
1979-07-07 15:59:03.700 ,1,0,0.,12.0,0.,12.0,0.,12.0,0.,12.0
1979-07-07 15:59:15.700 ,0,1,0.,12.0,0.,12.0,0.,12.0,0.,12.0
1979-07-07 15:59:27.700 ,0,1,0.,12.0,0.,12.0,0.,12.0,0.,12.0
1979-07-07 15:59:39.700 ,0,0,1.,12.0,0.,12.0,0.,12.0,0.,12.0
1979-07-07 15:59:51.700 ,0,0,0.,12.0,0.,12.0,0.,12.0,0.,12.0
1979-07-07 16:00:03.700 ,0,0,0.,12.0,0.,12.0,0.,12.0,1.,12.0
1979-07-07 16:00:15.700 ,0,0,0.,12.0,0.,12.0,0.,12.0,0.,12.0
1979-07-07 16:00:27.700 ,0,0,1.,12.0,0.,12.0,0.,12.0,0.,12.0
1979-07-07 16:00:39.700 ,0,0,0.,12.0,0.,12.0,0.,12.0,0.,12.0
1979-07-07 16:00:51.700 ,1,1,0.,12.0,0.,12.0,0.,12.0,0.,12.0
1979-07-07 16:01:03.700 ,1,1,2.,12.0,0.,12.0,0.,12.0,0.,12.0
1979-07-07 16:01:15.700 ,1,0,0.,12.0,0.,12.0,0.,12.0,0.,12.0
1979-07-07 16:01:27.700 ,1,0,0.,12.0,0.,12.0,0.,12.0,0.,12.0
1979-07-07 16:01:39.700 ,2,1,3.,12.0,0.,12.0,0.,12.0,0.,12.0
1979-07-07 16:01:51.700 ,2,1,1.,12.0,0.,12.0,0.,12.0,1.,12.0
1979-07-07 16:02:03.700 ,2,0,0.,12.0,0.,12.0,0.,12.0,1.,12.0
1979-07-07 16:02:15.700 ,2,0,1.,12.0,0.,12.0,0.,12.0,0.,12.0
1979-07-07 16:02:27.700 ,3,1,0.,12.0,0.,12.0,0.,12.0,0.,12.0
1979-07-07 16:02:39.700 ,3,1,3.,12.0,0.,12.0,0.,12.0,0.,12.0
1979-07-07 16:02:51.700 ,3,0,0.,12.0,0.,12.0,0.,12.0,0.,12.0
1979-07-07 16:03:03.700 ,3,0,1.,12.0,0.,12.0,0.,12.0,0.,12.0
1979-07-07 16:03:15.700 ,4,1,3.,12.0,0.,12.0,0.,12.0,1.,12.0
1979-07-07 16:03:27.700 ,4,1,0.,12.0,0.,12.0,0.,12.0,1.,12.0
1979-07-07 16:03:39.700 ,4,0,1.,12.0,0.,12.0,0.,12.0,0.,12.0
1979-07-07 16:03:51.700 ,4,0,1.,12.0,0.,12.0,0.,12.0,1.,12.0
1979-07-07 16:04:03.700 ,5,1,2.,12.0,0.,12.0,0.,12.0,0.,12.0
1979-07-07 16:04:15.700 ,5,1,5.,12.0,0.,12.0,0.,12.0,0.,12.0
1979-07-07 16:04:27.700 ,5,0,3.,12.0,0.,12.0,0.,12.0,0.,12.0
1979-07-07 16:04:39.700 ,5,0,2.,12.0,0.,12.0,0.,12.0,2.,12.0
1979-07-07 16:04:51.700 ,6,1,3.,12.0,0.,12.0,0.,12.0,2.,12.0
1979-07-07 16:05:03.700 ,6,1,4.,12.0,0.,12.0,0.,12.0,0.,12.0
1979-07-07 16:05:15.700 ,6,0,3.,12.0,0.,12.0,0.,12.0,1.,12.0
1979-07-07 16:05:27.700 ,6,0,3.,12.0,0.,12.0,0.,12.0,2.,12.0
1979-07-07 16:05:39.700 ,7,1,5.,12.0,0.,12.0,0.,12.0,0.,12.0
1979-07-07 16:05:51.700 ,7,1,0.,12.0,0.,12.0,0.,12.0,0.,12.0
1979-07-07 16:06:03.700 ,7,0,0.,12.0,0.,12.0,0.,12.0,0.,12.0
1979-07-07 16:06:15.700 ,7,0,0.,12.0,0.,12.0,0.,12.0,0.,12.0
1979-07-07 16:06:27.700 ,7,1,0.,12.0,0.,12.0,0.,12.0,0.,12.0
1979-07-07 16:06:39.700 ,7,1,0.,12.0,0.,12.0,0.,12.0,0.,12.0
1979-07-07 16:06:51.700 ,7,0,0.,12.0,0.,12.0,0.,12.0,0.,12.0
1979-07-07 16:07:03.700 ,7,0,0.,12.0,0.,12.0,0.,12.0,0.,12.0
1979-07-07 16:07:15.700 ,6,1,0.,12.0,0.,12.0,0.,12.0,0.,12.0
1979-07-07 16:07:27.700 ,6,1,1.,12.0,0.,12.0,0.,12.0,1.,12.0
1979-07-07 16:07:39.700 ,6,0,8.,12.0,0.,12.0,0.,12.0,0.,12.0
1979-07-07 16:07:51.700 ,6,0,2.,12.0,0.,12.0,0.,12.0,2.,12.0
1979-07-07 16:08:03.700 ,5,1,3.,12.0,0.,12.0,0.,12.0,0.,12.0
1979-07-07 16:08:15.700 ,5,1,1.,12.0,0.,12.0,0.,12.0,1.,12.0
1979-07-07 16:08:27.700 ,5,0,6.,12.0,0.,12.0,0.,12.0,2.,12.0
1979-07-07 16:08:39.700 ,5,0,3.,12.0,0.,12.0,0.,12.0,3.,12.0
1979-07-07 16:08:51.700 ,4,1,4.,12.0,0.,12.0,0.,12.0,0.,12.0
1979-07-07 16:09:03.700 ,4,1,0.,12.0,0.,12.0,0.,12.0,0.,12.0
1979-07-07 16:09:15.700 ,4,0,2.,12.0,0.,12.0,0.,12.0,1.,12.0
1979-07-07 16:09:27.700 ,4,0,3.,12.0,0.,12.0,0.,12.0,0.,12.0
1979-07-07 16:09:39.700 ,3,1,2.,12.0,0.,12.0,0.,12.0,0.,12.0
1979-07-07 16:09:51.700 ,3,1,2.,12.0,0.,12.0,0.,12.0,0.,12.0
1979-07-07 16:10:03.700 ,3,0,2.,12.0,0.,12.0,0.,12.0,0.,12.0
1979-07-07 16:10:15.700 ,3,0,2.,12.0,0.,12.0,0.,12.0,0.,12.0
1979-07-07 16:10:27.700 ,2,1,0.,12.0,0.,12.0,0.,12.0,0.,12.0
1979-07-07 16:10:39.700 ,2,1,0.,12.0,0.,12.0,0.,12.0,0.,12.0
1979-07-07 16:10:51.700 ,2,0,1.,12.0,0.,12.0,0.,12.0,0.,12.0
1979-07-07 16:11:03.700 ,2,0,3.,12.0,0.,12.0,0.,12.0,0.,12.0
1979-07-07 16:11:15.700 ,1,1,0.,12.0,0.,12.0,0.,12.0,0.,12.0
1979-07-07 16:11:27.700 ,1,1,1.,12.0,0.,12.0,0.,12.0,0.,12.0
1979-07-07 16:11:39.700 ,1,0,0.,12.0,0.,12.0,0.,12.0,0.,12.0
1979-07-07 16:11:51.700 ,1,0,0.,12.0,0.,12.0,0.,12.0,0.,12.0
1979-07-07 16:12:03.700 ,0,1,1.,12.0,0.,12.0,0.,12.0,0.,12.0
1979-07-07 16:12:15.700 ,0,1,1.,12.0,0.,12.0,0.,12.0,1.,12.0
1979-07-07 16:12:27.700 ,0,0,0.,12.0,0.,12.0,0.,12.0,0.,12.0
1979-07-07 16:12:39.700 ,0,0,0.,12.0,0.,12.0,0.,12.0,0.,12.0
1979-07-07 16:12:51.700 ,0,1,0.,12.0,0.,12.0,0.,12.0,0.,12.0
1979-07-07 16:13:03.700 ,0,1,1.,12.0,0.,12.0,0.,12.0,0.,12.0
1979-07-07 16:13:15.700 ,0,0,0.,12.0,0.,12.0,0.,12.0,0.,12.0
1979-07-07 16:13:27.700 ,0,0,0.,12.0,0.,12.0,0.,12.0,0.,12.0
1979-07-07 16:13:39.700 ,1,1,,0,,0,,0,,0
1979-07-07 16:13:51.700 ,1,1,0.,12.0,0.,12.0,0.,12.0,0.,12.0
1979-07-07 16:14:03.700 ,1,0,1.,12.0,0.,12.0,0.,12.0,1.,12.0
1979-07-07 16:14:15.700 ,1,0,1.,12.0,0.,12.0,0.,12.0,0.,12.0
1979-07-07 16:14:27.700 ,2,1,0.,12.0,0.,12.0,0.,12.0,1.,12.0
1979-07-07 16:14:39.700 ,2,1,1.,12.0,0.,12.0,0.,12.0,0.,12.0
1979-07-07 16:14:51.700 ,2,0,0.,12.0,0.,12.0,0.,12.0,0.,12.0
1979-07-07 16:15:03.700 ,2,0,2.,12.0,0.,12.0,0.,12.0,0.,12.0
1979-07-07 16:15:15.700 ,3,1,0.,12.0,0.,12.0,0.,12.0,0.,12.0
1979-07-07 16:15:27.700 ,3,1,0.,12.0,0.,12.0,0.,12.0,0.,12.0
1979-07-07 16:15:39.700 ,3,0,0.,12.0,0.,12.0,0.,12.0,1.,12.0
1979-07-07 16:15:51.700 ,3,0,0.,12.0,0.,12.0,0.,12.0,1.,12.0
1979-07-07 16:16:03.700 ,4,1,1.,12.0,0.,12.0,0.,12.0,2.,12.0
1979-07-07 16:16:15.700 ,4,1,3.,12.0,0.,12.0,0.,12.0,0.,12.0
1979-07-07 16:16:27.700 ,4,0,2.,12.0,0.,12.0,0.,12.0,2.,12.0
1979-07-07 16:16:39.700 ,4,0,1.,12.0,0.,12.0,0.,12.0,0.,12.0
1979-07-07 16:16:51.700 ,5,1,1.,12.0,0.,12.0,0.,12.0,0.,12.0
1979-07-07 16:17:03.700 ,5,1,1.,12.0,0.,12.0,0.,12.0,2.,12.0
1979-07-07 16:17:15.700 ,5,0,1.,12.0,0.,12.0,0.,12.0,1.,12.0
1979-07-07 16:17:27.700 ,5,0,1.,12.0,0.,12.0,0.,12.0,1.,12.0
1979-07-07 16:17:39.700 ,6,1,3.,12.0,0.,12.0,0.,12.0,1.,12.0
1979-07-07 16:17:51.700 ,6,1,1.,12.0,0.,12.0,0.,12.0,1.,12.0